TimeCST,TemperatureF,Dew PointF,Humidity,Sea Level PressureIn,VisibilityMPH,Wind Direction,Wind SpeedMPH,Gust SpeedMPH,PrecipitationIn,Events,Conditions,WindDirDegrees,DateUTC
12:15 AM,26.4,11.3,53,30.30,10.0,NW,8.1,-,N/A,,Scattered Clouds,320,2013-01-21 06:15:00
12:35 AM,26.2,11.8,55,30.30,10.0,NW,5.8,-,N/A,,Mostly Cloudy,310,2013-01-21 06:35:00
12:55 AM,25.7,11.7,55,30.30,10.0,WNW,6.9,-,N/A,,Scattered Clouds,300,2013-01-21 06:55:00
1:15 AM,25.5,12.0,57,30.30,10.0,WNW,10.4,-,N/A,,Scattered Clouds,300,2013-01-21 07:15:00
1:35 AM,25.5,13.1,59,30.30,10.0,WNW,10.4,-,N/A,,Clear,300,2013-01-21 07:35:00
1:55 AM,25.3,12.9,59,30.31,10.0,WNW,9.2,-,N/A,,Clear,300,2013-01-21 07:55:00
2:15 AM,24.8,13.1,61,30.31,10.0,NW,5.8,-,N/A,,Scattered Clouds,310,2013-01-21 08:15:00
2:35 AM,24.8,13.6,63,30.31,10.0,WNW,5.8,-,N/A,,Clear,300,2013-01-21 08:35:00
3:15 AM,23.7,13.8,66,30.30,10.0,WNW,11.5,-,N/A,,Clear,290,2013-01-21 09:15:00
3:55 AM,23.4,11.7,61,30.32,10.0,WNW,9.2,19.6,N/A,,Overcast,300,2013-01-21 09:55:00
4:15 AM,23.0,12.2,63,30.32,10.0,WNW,12.7,19.6,N/A,,Scattered Clouds,290,2013-01-21 10:15:00
4:35 AM,22.5,10.0,59,30.32,10.0,WNW,9.2,-,N/A,,Clear,290,2013-01-21 10:35:00
4:55 AM,22.1,10.9,62,30.32,10.0,WNW,10.4,-,N/A,,Clear,290,2013-01-21 10:55:00
5:15 AM,22.1,12.2,66,30.32,10.0,West,9.2,-,N/A,,Clear,280,2013-01-21 11:15:00
5:35 AM,22.6,10.9,61,30.31,10.0,WNW,16.1,20.7,N/A,,Clear,290,2013-01-21 11:35:00
6:50 AM,23.0,6.8,50,30.32,10.0,WNW,17.3,25.3,N/A,,Mostly Cloudy,300,2013-01-21 12:50:00
7:50 AM,21.2,3.2,46,30.32,10.0,NW,17.3,25.3,N/A,,Scattered Clouds,310,2013-01-21 13:50:00
8:50 AM,23.0,19.4,86,30.33,10.0,NW,13.8,19.6,N/A,,Scattered Clouds,310,2013-01-21 14:50:00
9:50 AM,23.0,1.4,39,30.34,10.0,NW,16.1,21.9,N/A,,Scattered Clouds,310,2013-01-21 15:50:00
10:50 AM,24.8,-2.2,31,30.35,10.0,NW,18.4,27.6,N/A,,Scattered Clouds,310,2013-01-21 16:50:00
11:50 AM,26.6,-0.4,31,30.33,10.0,WNW,17.3,25.3,N/A,,Partly Cloudy,300,2013-01-21 17:50:00
12:50 PM,24.8,-5.8,26,30.34,10.0,NW,20.7,32.2,N/A,,Partly Cloudy,310,2013-01-21 18:50:00
2:50 PM,23.0,-5.8,28,30.34,10.0,NW,18.4,29.9,N/A,,Mostly Cloudy,320,2013-01-21 20:50:00
3:50 PM,21.2,-4.0,33,30.36,10.0,NW,17.3,-,N/A,,Overcast,310,2013-01-21 21:50:00
4:50 PM,21.2,-5.8,30,30.36,10.0,WNW,16.1,-,N/A,,Overcast,300,2013-01-21 22:50:00
9:15 PM,18.5,-5.8,34,30.39,10.0,NW,4.6,-,N/A,,Clear,310,2013-01-22 03:15:00
9:35 PM,18.3,-4.7,36,30.39,10.0,NW,5.8,-,N/A,,Clear,320,2013-01-22 03:35:00
9:55 PM,18.0,-3.8,38,30.39,10.0,NNW,4.6,-,N/A,,Clear,330,2013-01-22 03:55:00
10:15 PM,17.6,-3.8,39,30.39,10.0,NW,5.8,-,N/A,,Scattered Clouds,320,2013-01-22 04:15:00
10:35 PM,17.6,-3.3,40,30.39,10.0,NW,5.8,-,N/A,,Mostly Cloudy,310,2013-01-22 04:35:00
10:55 PM,17.6,-2.6,41,30.39,10.0,WNW,6.9,-,N/A,,Mostly Cloudy,300,2013-01-22 04:55:00
11:15 PM,17.4,-2.0,42,30.40,10.0,WNW,5.8,-,N/A,,Mostly Cloudy,300,2013-01-22 05:15:00
11:35 PM,16.7,-0.8,46,30.39,10.0,WNW,5.8,-,N/A,,Scattered Clouds,290,2013-01-22 05:35:00
11:55 PM,16.5,-0.4,47,30.39,10.0,WNW,4.6,-,N/A,,Scattered Clouds,290,2013-01-22 05:55:00